Welcome to MDBA River Data.

This website aims to give an overview only of flow and storage information for the River Murray system. Please note that some sites may be off-line and no data is shown. For information from other catchments please contact your relevant state water agency. More information is available at Who does what in the catchments.

Forecasts are only available for sites displaying the forecast symbol.

Some water levels are actually in metres AHD (Australian Height Datum), click individual sites for more details.

Scroll for more >

River gauges, storages, and weirs in the Murray–Darling Basin

Typesort descending Location River Water level Flow Volume Release Water temp Salinity Rainfall
River Gauge Lake Alexandrina Murray 0.75 m 22/06/2024 21:00 Not measured 1611 GL 22/06/2024 21:00 Not measured Not measured 455.9 μS/cm 22/06/2024 19:00 Not measured Full data
River Gauge Echuca Wharf Murray 86.33 m 22/06/2024 19:00 Not measured Not measured Not measured Not measured Not measured Not measured Full data
River Gauge Tocumwal Murray 1.4 m 22/06/2024 20:00 3830 ML/Day 22/06/2024 20:00 Not measured Not measured 9.2°C 22/06/2024 20:00 72.5 μS/cm 22/06/2024 20:00 Not measured Full data
River Gauge Swan Hill Murray 1.01 m 22/06/2024 20:00 3955 ML/Day 22/06/2024 20:00 Not measured Not measured 9.3°C 22/06/2024 20:00 147.3 μS/cm 22/06/2024 20:00 Not measured Full data
River Gauge Balranald Murrumbidgee 0.88 m 22/06/2024 21:00 527 ML/Day 22/06/2024 21:00 Not measured Not measured 9.8°C 22/06/2024 21:00 223.9 μS/cm 22/06/2024 21:00 Not measured Full data
River Gauge Wakool Junction Murray 2.79 m 22/06/2024 20:00 6028 ML/Day 22/06/2024 20:00 Not measured Not measured 9.5°C 22/06/2024 20:00 154.3 μS/cm 22/06/2024 20:00 Not measured Full data
River Gauge Burtundy Darling 1.13 m 22/06/2024 21:00 1540 ML/Day 22/06/2024 21:00 Not measured Not measured 10.5°C 22/06/2024 21:00 304.6 μS/cm 22/06/2024 8:00 Not measured Full data
River Gauge Biggara Murray 0.39 m 22/06/2024 21:00 417 ML/Day 22/06/2024 21:00 Not measured Not measured 4.3°C 22/06/2024 21:00 65.1 μS/cm 22/06/2024 21:00 0.00 mm 22/06/2024 20:00 Full data
River Gauge Weir 32 Upstream Darling 1.44 m 22/06/2024 21:00 402 ML/Day 22/06/2024 21:00 Not measured Not measured 11.9°C 22/06/2024 21:00 376.7 μS/cm 22/06/2024 21:00 Not measured Full data
River Gauge Murray Bridge Murray 0.73 m 22/06/2024 19:00 Not measured Not measured Not measured 12.7°C 22/06/2024 19:00 579.4 μS/cm 22/06/2024 19:00 Not measured Full data
River Gauge Flow to South Australia Murray Not measured Not measured Not measured 4351.4 ML/d21/06/2024 9:00 Not measured Not measured Not measured Full data
River Gauge Lake Albert Murray 0.76 m 22/06/2024 21:00 Not measured 272 GL 22/06/2024 21:00 Not measured Not measured Not measured Not measured Full data
River Gauge Wilcania Darling 1.58 m 22/06/2024 21:00 1769 ML/Day 22/06/2024 21:00 Not measured Not measured 11.8°C 22/06/2024 21:00 219.3 μS/cm 22/06/2024 8:00 Not measured Full data
River Gauge Albury (Union Bridge) Murray 0.97 m 22/06/2024 21:00 Not measured Not measured Not measured 10.4°C 22/06/2024 21:00 59.5 μS/cm 22/06/2024 21:00 Not measured Full data
River Gauge Mundoo Barrage Murray 0.75 m 21/06/2024 8:00 Not measured Not measured Not measured Not measured Not measured Not measured Full data
River Gauge Tauwitchere Barrage Murray 0.74 m 22/06/2024 19:00 Not measured Not measured Not measured Not measured Not measured Not measured Full data
River Gauge Morgan Downstream Murray Not measured Not measured Not measured 2089.1 ML/d22/06/2024 19:00 Not measured 433 μS/cm 22/06/2024 18:00 Not measured Full data
River Gauge Colignan Murray 2.09 m 22/06/2024 20:00 7003 ML/Day 22/06/2024 20:00 Not measured Not measured 10.8°C 22/06/2024 20:00 184 μS/cm 22/06/2024 20:00 Not measured Full data
River Gauge Torrumbarry Headworks Murray 83.69 m 22/06/2024 20:00 Not measured Not measured 476 ML/d22/06/2024 20:00 Not measured Not measured Not measured Full data
River Gauge Yarrawonga Main Channel Murray 0.00 m 22/06/2024 20:00 Not measured Not measured 0.00 ML/d22/06/2024 20:00 Not measured Not measured Not measured Full data
River Gauge Rufus River Murray 20.08 m 21/06/2024 8:00 Not measured Not measured 695.2 ML/d21/06/2024 8:00 Not measured 334.1 μS/cm 22/06/2024 18:00 Not measured Full data
River Gauge Frenchman Creek Murray 27.18 m 21/06/2024 8:00 Not measured Not measured 6713.5 ML/d21/06/2024 8:00 Not measured Not measured Not measured Full data
River Gauge Barmah Murray 1.38 m 22/06/2024 20:00 2736 ML/Day 22/06/2024 20:00 Not measured Not measured Not measured Not measured Not measured Full data
River Gauge Redcliffs Murray Not measured Not measured Not measured Not measured Not measured 223.3 μS/cm 22/06/2024 8:00 Not measured Full data
River Gauge Gulpa Creek Offtake Murray 2.02 m 22/06/2024 21:00 174 ML/Day 22/06/2024 21:00 Not measured Not measured Not measured Not measured Not measured Full data
River Gauge Pinegrove Murray 1.13 m 22/06/2024 21:00 270 ML/Day 22/06/2024 21:00 Not measured Not measured 5.6°C 22/06/2024 21:00 84.4 μS/cm 22/06/2024 20:00 0.00 mm 22/06/2024 20:00 Full data
River Gauge Jingellic Murray 1.84 m 22/06/2024 20:00 5449 ML/Day 22/06/2024 20:00 Not measured Not measured 8.4°C 22/06/2024 20:00 32.4 μS/cm 22/06/2024 20:00 0.00 mm 22/06/2024 20:00 Full data
River Gauge Hinnomunjie Mitta 0.79 m 22/06/2024 20:00 524 ML/Day 22/06/2024 20:00 Not measured Not measured 4.3°C 22/06/2024 20:00 60.2 μS/cm 22/06/2024 20:00 0.00 mm 22/06/2024 20:00 Full data
River Gauge Tallandoon Mitta 1.44 m 22/06/2024 20:00 660 ML/Day 22/06/2024 20:00 Not measured Not measured 7.4°C 22/06/2024 20:00 59 μS/cm 22/06/2024 20:00 Not measured Full data
River Gauge Colemans Mitta 1.18 m 22/06/2024 20:00 481 ML/Day 22/06/2024 20:00 Not measured Not measured 8.7°C 22/06/2024 20:00 49.8 μS/cm 22/06/2024 20:00 Not measured Full data
River Gauge Bringenbrong Bridge Murray 1.55 m 22/06/2024 21:00 3981 ML/Day 22/06/2024 21:00 Not measured Not measured Not measured Not measured Not measured Full data
River Gauge Bandiana Kiewa 1.21 m 22/06/2024 20:00 797 ML/Day 22/06/2024 20:00 Not measured Not measured 6.2°C 22/06/2024 20:00 32.7 μS/cm 22/06/2024 20:00 Not measured Full data
River Gauge Peechelba Ovens 126.55 m 22/06/2024 20:00 650 ML/Day 22/06/2024 20:00 Not measured Not measured 7.1°C 22/06/2024 20:00 72.6 μS/cm 22/06/2024 20:00 Not measured Full data
River Gauge McCoy Bridge Goulburn 1.58 m 22/06/2024 20:00 1102 ML/Day 22/06/2024 20:00 Not measured Not measured 8.3°C 22/06/2024 20:00 197.3 μS/cm 22/06/2024 20:00 Not measured Full data
River Gauge Rochester Campaspe 1.82 m 22/06/2024 20:00 156 ML/Day 22/06/2024 20:00 Not measured Not measured 8.1°C 22/06/2024 20:00 509.5 μS/cm 22/06/2024 20:00 0.00 mm 22/06/2024 20:00 Full data
River Gauge Kerang Loddon 0.42 m 22/06/2024 20:00 307 ML/Day 22/06/2024 20:00 Not measured Not measured 8.4°C 22/06/2024 20:00 719.3 μS/cm 22/06/2024 20:00 Not measured Full data
River Gauge Corowa Murray 1.45 m 22/06/2024 21:00 4871 ML/Day 22/06/2024 21:00 Not measured Not measured 9.9°C 22/06/2024 21:00 61.4 μS/cm 22/06/2024 21:00 Not measured Full data
River Gauge Edward River Offtake Murray 1.58 m 22/06/2024 21:00 579 ML/Day 22/06/2024 21:00 Not measured Not measured 9.3°C 22/06/2024 21:00 77.1 μS/cm 22/06/2024 8:00 Not measured Full data
River Gauge Stoney Crossing Murray 1.33 m 22/06/2024 21:00 351 ML/Day 22/06/2024 8:00 Not measured Not measured 9.4°C 22/06/2024 21:00 669 μS/cm 22/06/2024 21:00 Not measured Full data
River Gauge Doctors Point Murray 1.84 m 22/06/2024 21:00 3172 ML/Day 22/06/2024 21:00 Not measured Not measured 10.6°C 22/06/2024 21:00 57.3 μS/cm 22/06/2024 21:00 Not measured Full data
River Gauge Edward Escape Wakool -1.2 m 22/06/2024 21:00 0.00 ML/Day 22/06/2024 8:00 Not measured Not measured 8°C 22/06/2024 21:00 0.00 μS/cm 22/06/2024 8:00 Not measured Full data
River Gauge Mulwala Canal Murray Not measured Not measured Not measured 0.00 ML/d22/06/2024 8:00 Not measured Not measured Not measured Full data
River Gauge Wakool Canal Wakool -0.06 m 22/06/2024 21:00 Not measured Not measured 0.00 ML/d21/06/2024 9:00 Not measured Not measured Not measured Full data
Storage Hume Dam Murray 186.29 m 22/06/2024 21:00 Not measured 1981 GL 22/06/2024 21:00 2228.8 ML/d22/06/2024 21:00 Not measured Not measured 0.00 mm 22/06/2024 21:00 Full data
Storage Lake Victoria Murray 25.42 m 22/06/2024 19:00 Not measured 493 GL 22/06/2024 19:00 Not measured 11.5°C 22/06/2024 19:00 306.9 μS/cm 22/06/2024 19:00 Not measured Full data
Storage Dartmouth Dam Mitta 482.61 m 22/06/2024 20:00 Not measured 3638 GL 22/06/2024 20:00 Not measured Not measured Not measured Not measured Full data
Storage Menindee Lakes Darling Not measured Not measured 1057 GL 22/06/2024 9:00 Not measured Not measured Not measured Not measured Full data
Weirs Yarrawonga Weir Downstream Murray 0.85 m 22/06/2024 21:00 4339 ML/Day 22/06/2024 21:00 Not measured Not measured 9.2°C 22/06/2024 21:00 78.9 μS/cm 22/06/2024 8:00 Not measured Full data
Weirs Mildura Weir downstream Murray 30.79 m 22/06/2024 20:00 Not measured Not measured Not measured 10.8°C 22/06/2024 20:00 225.7 μS/cm 22/06/2024 20:00 Not measured Full data
Weirs Euston Weir Upstream Murray 47.6 m 21/06/2024 9:00 Not measured 37 GL 21/06/2024 8:00 Not measured Not measured Not measured Not measured Full data
Weirs Euston Weir Downstream Murray 43.31 m 22/06/2024 20:00 7177 ML/Day 22/06/2024 20:00 Not measured Not measured 10.3°C 22/06/2024 20:00 199.6 μS/cm 22/06/2024 20:00 Not measured Full data
Weirs Lock 8 Upstream Murray 24.56 m 22/06/2024 19:00 Not measured Not measured Not measured 11.7°C 22/06/2024 19:00 367.6 μS/cm 22/06/2024 19:00 Not measured Full data
Weirs Steven's Weir Downstream Edward 1.18 m 22/06/2024 21:00 995 ML/Day 22/06/2024 21:00 Not measured Not measured 9°C 22/06/2024 21:00 86.4 μS/cm 22/06/2024 8:00 Not measured Full data
Weirs Steven's Weir Upstream Edward 1.33 m 22/06/2024 21:00 Not measured Not measured Not measured Not measured Not measured Not measured Full data
Weirs Torrumbarry Weir Upstream Murray 86.05 m 22/06/2024 20:00 Not measured 37 GL 22/06/2024 9:00 Not measured 9.4°C 22/06/2024 9:00 107.9 μS/cm 22/06/2024 19:00 0.00 mm 22/06/2024 9:00 Full data
Weirs Yarrawonga Weir Upstream Murray 123.74 m 22/06/2024 20:00 Not measured Not measured Not measured Not measured Not measured 0.00 mm 22/06/2024 20:00 Full data
Weirs Torrumbarry Weir Downstream Murray 1.41 m 22/06/2024 20:00 3563 ML/Day 22/06/2024 20:00 Not measured Not measured 9.6°C 22/06/2024 20:00 108 μS/cm 22/06/2024 20:00 Not measured Full data
Weirs Wentworth Weir Murray 27.85 m 22/06/2024 21:00 Not measured Not measured 7310.5 ML/d21/06/2024 8:00 Not measured 232 μS/cm 21/06/2024 9:00 Not measured Full data
Weirs Lock 1 Downstream Murray 0.72 m 22/06/2024 19:00 Not measured Not measured 4702.8 ML/d21/06/2024 9:00 Not measured Not measured Not measured Full data
Weirs Lock 1 Upstream Murray 3.23 m 22/06/2024 19:00 Not measured Not measured Not measured 12.8°C 22/06/2024 19:00 460.6 μS/cm 22/06/2024 19:00 Not measured Full data
Weirs Lock 2 Downstream Murray 3.37 m 22/06/2024 19:00 Not measured Not measured Not measured Not measured Not measured Not measured Full data
Weirs Lock 2 Upstream Murray 6.1 m 22/06/2024 19:00 Not measured Not measured Not measured 12.3°C 22/06/2024 19:00 458.1 μS/cm 22/06/2024 19:00 Not measured Full data
Weirs Lock 3 Downstream Murray 6.28 m 22/06/2024 16:00 Not measured Not measured Not measured Not measured Not measured Not measured Full data
Weirs Lock 3 Upstream Murray 9.8 m 22/06/2024 19:00 Not measured Not measured Not measured Not measured Not measured Not measured Full data
Weirs Lock 4 Downstream Murray 10.26 m 22/06/2024 20:00 Not measured Not measured Not measured Not measured Not measured Not measured Full data
Weirs Lock 4 Upstream Murray 13.19 m 22/06/2024 20:00 Not measured Not measured Not measured Not measured Not measured Not measured Full data
Weirs Lock 5 Downstream Murray 13.28 m 22/06/2024 20:00 Not measured Not measured Not measured Not measured Not measured Not measured Full data
Weirs Lock 5 Upstream Murray 16.29 m 22/06/2024 20:00 Not measured Not measured Not measured 12.1°C 22/06/2024 20:00 424.2 μS/cm 22/06/2024 20:00 Not measured Full data
Weirs Lock 6 Downstream Murray 16.28 m 22/06/2024 20:00 Not measured Not measured Not measured Not measured Not measured Not measured Full data
Weirs Lock 6 Upstream Murray 19.22 m 22/06/2024 20:00 Not measured Not measured Not measured 12.1°C 22/06/2024 20:00 342.6 μS/cm 22/06/2024 20:00 Not measured Full data
Weirs Lock 7 Downstream Murray 19.94 m 22/06/2024 20:00 Not measured Not measured Not measured Not measured Not measured Not measured Full data
Weirs Lock 7 Upstream Murray 22.05 m 22/06/2024 20:00 Not measured Not measured Not measured 11.9°C 22/06/2024 20:00 293.7 μS/cm 22/06/2024 20:00 Not measured Full data
Weirs Lock 9 Downstream Murray 24.55 m 22/06/2024 20:00 Not measured Not measured Not measured Not measured Not measured Not measured Full data
Weirs Lock 9 Upstream Murray 27.47 m 22/06/2024 20:00 Not measured Not measured Not measured 11.4°C 22/06/2024 20:00 404.3 μS/cm 22/06/2024 20:00 Not measured Full data